Time,TemperatureF,DewpointF,PressureIn,WindDirection,WindDirectionDegrees,WindSpeedMPH,WindSpeedGustMPH,Humidity,HourlyPrecipIn,Conditions,Clouds,dailyrainin,SoftwareType,DateUTC
2017-02-24 00:02:00,58.9,55.0,29.69,SE,136,3.0,7.0,87,0.00,,,0.00,weatherlink.com 1.10,2017-02-24 05:02:00,
2017-02-24 00:17:00,58.8,55.0,29.68,SSE,151,5.0,8.0,88,0.00,,,0.00,weatherlink.com 1.10,2017-02-24 05:17:00,
2017-02-24 00:32:00,58.7,55.0,29.68,SSE,153,4.0,8.0,88,0.00,,,0.00,weatherlink.com 1.10,2017-02-24 05:32:00,
2017-02-24 00:47:00,58.5,55.0,29.67,SSE,154,4.0,8.0,88,0.00,,,0.00,weatherlink.com 1.10,2017-02-24 05:47:00,
2017-02-24 01:03:00,58.4,55.0,29.67,SSE,159,8.0,8.0,88,0.00,,,0.00,weatherlink.com 1.10,2017-02-24 06:03:00,
2017-02-24 01:18:00,58.5,55.0,29.67,SSE,148,4.0,9.0,88,0.00,,,0.00,weatherlink.com 1.10,2017-02-24 06:18:00,
2017-02-24 01:33:00,58.6,55.0,29.67,SSE,157,3.0,11.0,87,0.00,,,0.00,weatherlink.com 1.10,2017-02-24 06:33:00,
2017-02-24 01:48:00,58.8,55.0,29.68,SSE,161,6.0,10.0,86,0.00,,,0.00,weatherlink.com 1.10,2017-02-24 06:48:00,
2017-02-24 02:03:00,59.0,55.0,29.68,SSE,163,5.0,9.0,85,0.00,,,0.00,weatherlink.com 1.10,2017-02-24 07:03:00,
2017-02-24 02:18:00,59.3,55.0,29.68,SSW,202,3.0,10.0,85,0.00,,,0.00,weatherlink.com 1.10,2017-02-24 07:18:00,
2017-02-24 02:33:00,59.4,55.0,29.68,SSE,165,9.0,11.0,84,0.00,,,0.00,weatherlink.com 1.10,2017-02-24 07:33:00,
2017-02-24 02:48:00,59.3,55.0,29.68,South,176,4.0,11.0,84,0.00,,,0.00,weatherlink.com 1.10,2017-02-24 07:48:00,
2017-02-24 03:03:00,59.1,54.0,29.67,SE,140,4.0,11.0,84,0.00,,,0.00,weatherlink.com 1.10,2017-02-24 08:03:00,
2017-02-24 03:18:00,58.8,54.0,29.67,South,169,10.0,12.0,84,0.00,,,0.00,weatherlink.com 1.10,2017-02-24 08:18:00,
2017-02-24 03:33:00,58.4,54.0,29.67,SSE,161,4.0,10.0,84,0.00,,,0.00,weatherlink.com 1.10,2017-02-24 08:33:00,
2017-02-24 03:48:00,58.1,53.0,29.67,SE,135,5.0,9.0,84,0.00,,,0.00,weatherlink.com 1.10,2017-02-24 08:48:00,
2017-02-24 04:03:00,57.7,53.0,29.67,SSE,162,4.0,8.0,85,0.00,,,0.00,weatherlink.com 1.10,2017-02-24 09:03:00,
2017-02-24 04:18:00,57.3,53.0,29.67,SSE,151,3.0,8.0,85,0.00,,,0.00,weatherlink.com 1.10,2017-02-24 09:18:00,
2017-02-24 04:33:00,57.0,53.0,29.66,South,177,4.0,11.0,85,0.00,,,0.00,weatherlink.com 1.10,2017-02-24 09:33:00,
2017-02-24 04:48:00,57.1,53.0,29.65,SSE,167,4.0,11.0,85,0.00,,,0.00,weatherlink.com 1.10,2017-02-24 09:48:00,
2017-02-24 05:03:00,57.2,53.0,29.65,SSE,162,7.0,8.0,85,0.00,,,0.00,weatherlink.com 1.10,2017-02-24 10:03:00,
2017-02-24 05:18:00,57.5,53.0,29.65,SSE,163,5.0,11.0,84,0.00,,,0.00,weatherlink.com 1.10,2017-02-24 10:18:00,
2017-02-24 05:33:00,57.8,53.0,29.65,South,183,3.0,11.0,84,0.00,,,0.00,weatherlink.com 1.10,2017-02-24 10:33:00,
2017-02-24 05:48:00,58.3,53.0,29.66,SSW,203,6.0,12.0,83,0.00,,,0.00,weatherlink.com 1.10,2017-02-24 10:48:00,
2017-02-24 06:03:00,58.7,54.0,29.65,SSW,200,4.0,17.0,83,0.00,,,0.00,weatherlink.com 1.10,2017-02-24 11:03:00,
2017-02-24 06:18:00,59.0,54.0,29.65,SSW,198,8.0,11.0,82,0.00,,,0.00,weatherlink.com 1.10,2017-02-24 11:18:00,
2017-02-24 06:33:00,59.3,54.0,29.64,SSE,158,8.0,14.0,82,0.00,,,0.00,weatherlink.com 1.10,2017-02-24 11:33:00,
2017-02-24 06:48:00,59.6,54.0,29.64,SSW,209,11.0,15.0,81,0.00,,,0.00,weatherlink.com 1.10,2017-02-24 11:48:00,
2017-02-24 07:03:00,59.8,54.0,29.64,SSE,163,12.0,15.0,81,0.00,,,0.00,weatherlink.com 1.10,2017-02-24 12:03:00,
2017-02-24 07:18:00,60.1,54.0,29.64,SE,143,8.0,19.0,81,0.00,,,0.00,weatherlink.com 1.10,2017-02-24 12:18:00,
2017-02-24 07:33:00,59.8,54.0,29.64,SSW,192,8.0,17.0,81,0.00,,,0.00,weatherlink.com 1.10,2017-02-24 12:33:00,
2017-02-24 07:48:00,59.7,54.0,29.64,SSE,147,6.0,17.0,81,0.00,,,0.00,weatherlink.com 1.10,2017-02-24 12:48:00,
2017-02-24 08:03:00,60.0,54.0,29.64,SW,224,7.0,20.0,81,0.00,,,0.00,weatherlink.com 1.10,2017-02-24 13:03:00,
2017-02-24 08:18:00,60.3,54.0,29.64,South,190,11.0,17.0,80,0.00,,,0.00,weatherlink.com 1.10,2017-02-24 13:18:00,
2017-02-24 08:33:00,61.0,54.0,29.64,SSW,213,9.0,20.0,79,0.00,,,0.00,weatherlink.com 1.10,2017-02-24 13:33:00,
2017-02-24 08:48:00,61.7,55.0,29.65,South,177,6.0,18.0,78,0.00,,,0.00,weatherlink.com 1.10,2017-02-24 13:48:00,